リニア彗星

P/2004 WR9 ( LINEAR )

English version
Home page
Updated on April 23, 2005

---------------------------------------------------------------------

・ プロフィール

発見日 2004年11月22日
発見光度 18.7等
発見者 Lincoln Laboratory Near-Earth Asteroid Research project

・ 軌道要素

Epoch 2005 Jan. 30.0 TT = JDT 2453400.5
T 2005 Jan. 11.49204 TT                                 MPC
q   1.9172383            (2000.0)            P               Q
n   0.06604682     Peri.   70.63085     -0.10438956     -0.99381719
a   6.0613324      Node    25.45177     +0.87626146     -0.10989389
e   0.6836936      Incl.    5.04857     +0.47039204     -0.01583436
P  14.92

・ 星図

・ 光度変化

        m1 = 14.5 + 5 logΔ + 10.0 log r

---------------------------------------------------------------------

軌道要素はM.P.E.C. 2005-B42に掲載されたものです。
星図は StellaNavigator Ver.2.0 for Windows (アストロアーツ 編著 / アスキー出版局刊) で作成したものです。
光度グラフはComet for Windowsで作成したものです。

---------------------------------------------------------------------

Copyright(C) Seiichi Yoshida (comet@aerith.net). All rights reserved.